Regional Weather Roundup
Issued by NWS

Home | Current Version | Previous Version | Text Only | Print | Product List | Glossary Off
Versions: 1 2 3 4 5 6 7 8 9 10 11 12 13 14 15 16 17 18 19 20 21 22 23 24 25 26 27

000
ASUS45 KBOU 190307
RWRCO

WEATHER ROUNDUP FOR COLORADO
NATIONAL WEATHER SERVICE DENVER/BOULDER CO
900 PM MDT MON SEP 18 2017

NOTE: "FAIR" INDICATES FEW OR NO CLOUDS BELOW 12000 FEET WITH NO
SIGNIFICANT WEATHER AND/OR OBSTRUCTIONS TO VISIBILITY.

COZ001>005-013-030-031-190400-
...NORTHWEST COLORADO...

CITY           SKY/WX    TMP DP  RH WIND       PRES   REMARKS
CRAIG          FAIR      65  32  29 CALM      29.94S
HAYDEN         FAIR      61  30  31 S6        29.99R
MEEKER         FAIR      59  36  42 CALM      29.97F
RABBIT EARS PA FAIR      46  30  53 SW10G24   30.24S
STEAMBOAT SPGS FAIR      60  33  36 E6        30.00S
WALDEN         FAIR      50  30  46 SE3       30.09S
$$

COZ006>008-011-190400-
...WEST CENTRAL VALLEYS...

CITY           SKY/WX    TMP DP  RH WIND       PRES   REMARKS
GRAND JUNCTION FAIR      67  33  28 CALM      29.90S
MONTROSE       FAIR      60  36  40 S5        30.03R
EAGLE          FAIR      62  32  32 S5        30.04
RIFLE          FAIR      70  24  17 S14       29.94S
DELTA          FAIR      72  24  16 MISG      29.98R
NUCLA          FAIR      63  25  23 SE6       30.06S
$$

COZ017>023-064>068-190400-
...SOUTHWEST COLORADO...

CITY           SKY/WX    TMP DP  RH WIND       PRES   REMARKS
DURANGO        FAIR      55  31  39 CALM      30.12R
CORTEZ         FAIR      54  36  50 E8        30.05R
PAGOSA SPRINGS FAIR      54  29  39 CALM      30.19F
TELLURIDE      FAIR      58  20  22 SE13G22   30.26R
WOLF CREEK PAS FAIR      41  14  33 SW15G25   30.46R
$$

COZ009-010-012-014-032>034-037-058>063-190400-
...CENTRAL COLORADO...

CITY           SKY/WX    TMP DP  RH WIND       PRES   REMARKS
ASPEN          FAIR      52  35  52 S6        30.11R
BUENA VISTA    FAIR      55  33  42 W7        30.12R
COPPER MTN     FAIR      48  21  34 SW8G22    30.38S
BERTHOUD PASS  FAIR      39  32  75 W9        30.38F
COTTONWOOD PAS FAIR      57  28  33 SW8       30.25S
GUNNISON       FAIR      55  34  45 NE6       30.14R
KREMMLING      FAIR      59  30  33 CALM      30.07R
LEADVILLE      FAIR      46  27  47 CALM      30.23R
SALIDA         FAIR      64  31  28 W13G18    30.17R
SUNLIGHT       FAIR      43  23  45 SW20G35   30.29S
WILKERSON PASS FAIR      46  32  57 S9G18     30.33F
$$

COZ069>075-190400-
...SAN LUIS VALLEY/SANGRE DE CRISTO MOUNTAINS...

CITY           SKY/WX    TMP DP  RH WIND       PRES   REMARKS
ALAMOSA        FAIR      47  30  51 SE8       30.16R
DEL NORTE      FAIR      57  20  23 W10       30.19S
LA VETA PASS   FAIR      50  19  29 S22G37    30.39F
SAGUACHE       FAIR      54  34  47 NE6       30.16R
$$

COZ035-036-038>040-190400-
...NORTHERN COLORADO FRONT RANGE...

CITY           SKY/WX    TMP DP  RH WIND       PRES   REMARKS
DENVER INTL AP FAIR      66  33  29 S16       29.87S
DMNS CITY PARK   N/A     67  37  33 SE8       29.89R
AURORA         PTCLDY    69  34  27 S13       29.90R
FRONT RANGE AP PTCLDY    68  32  26 SE14      29.89F
ERIE MUNI ARPT FAIR      63  28  26 NW5       29.91R
BOULDER MUN AP FAIR      68  32  26 SW3       29.88S
CENTENNIAL     FAIR      72  35  25 S15       29.91R
BROOMFIELD     PTCLDY    68  28  22 NW9       29.90S
FORT COLLINS   FAIR      65  33  30 CALM      29.89R
LONGMONT       FAIR      64  37  36 NW6       29.89S
$$

COZ041-046-047-076>085-087-088-190400-
...PIKES PEAK/PALMER DIVIDE AND SOUTHERN FOOTHILLS...

CITY           SKY/WX    TMP DP  RH WIND       PRES   REMARKS
COLO. SPRINGS  FAIR      67  37  33 SE10      30.00S
A. F. ACADEMY  FAIR      64  33  32 S8        30.01S
SCHRIEVER AFB  FAIR      61  33  36 E9        30.00F
CHEYENNE MTN   NOT AVBL
ELLICOTT       NOT AVBL
FALCON         FAIR      59  33  36 SE6       30.06S
FORT CARSON    FAIR      67  36  31 S5        29.97S
LIMON            N/A    N/A N/A N/A MISG      29.95S
MONUMENT HILL  FAIR      61  34  36 S18       30.05S
CANON CITY     CLEAR     68  37  32 NW6       29.93S
WALSENBURG     FAIR      70  21  16 SW13G18   30.01R
TRINIDAD       FAIR      60  39  45 SW12      30.00R
$$

COZ042>045-048>051-090-091-190400-
...NORTHEAST COLORADO...

CITY           SKY/WX    TMP DP  RH WIND       PRES   REMARKS
GREELEY ARPT   FAIR      60  41  49 NE6       29.86S
AKRON          FAIR      65  37  35 SE15      29.89F
BURLINGTON     FAIR      63  47  55 SE10      29.92S
WRAY           FAIR      66  43  42 SE7       29.89S
YUMA           FAIR      61  32  33 SE8       29.89S
STERLING       FAIR      68  37  32 SE8       29.84S
HOLYOKE        FAIR      68  45  42 SE12      29.87F
FORT MORGAN    FAIR      62  32  32 E12       29.87S
$$

COZ086-089-092>099-190400-
...SOUTHEAST COLORADO...

CITY           SKY/WX    TMP DP  RH WIND       PRES   REMARKS
PUEBLO         FAIR      70  34  26 SE6       29.88S
LA JUNTA       FAIR      69  39  33 E5        29.88S
LAMAR          FAIR      73  51  46 SE14      29.86S
SPRINGFIELD      N/A     65  53  65 S8        29.93S
$$




USA.gov is the U.S. government's official web portal to all federal, state and local government web resources and services.